Flag for Romania Weather past 2 weeks in Iasi, Romania

Now
45 °F

Passing clouds.


Feels Like: 40 °F
Forecast: 38 / 49 °F
Wind: 8 mph from Southeast

Location: Iasi Airport

Current Time: Mar 2, 2015 at 10:32:00 AM

Latest Report: Mar 2, 2015 at 10:00 AM


Visibility: N/A

Pressure: 29.86 "Hg

Humidity: 93%

Dew point: 43 °F

Location of IasiLocation

Historic Weather in Iasi — Graph

°F

Iasi temperature yesterday

Maximum temperature yesterday: 41 °F (at 4:00 PM)
Minimum temperature yesterday: 36 °F (at 9:00 AM)
Average temperature yesterday: 39 °F

Past Weeks' High & Low Weather Summary

 TemperatureHumidityPressure
High54 °F (Feb 23, 3:30 PM)100% (Feb 15, 9:30 AM)30.77 "Hg (Feb 15, 9:30 AM)
Low14 °F (Feb 17, 6:30 AM)23% (Feb 18, 3:30 PM)29.77 "Hg (Feb 24, 1:00 PM)
Average37 °F83%30.14 "Hg
* Reported Feb 15 9:30 AM — Mar 2 9:30 AM, Iasi, Weather by CustomWeather, © 2015

Note: Actual official high and low records may vary slightly from our data, if they occured in-between our weather recording intervals... More about our weather records

Advertising

Iasi weather history for previous 24 hours

 ConditionsComfort  
Time TempWeatherWind HumidityBarometerVisibility
9:30 AM
Mon, Mar 2
43 °FPassing clouds.10 mph93%29.86 "HgN/A
9:00 AM43 °FClear.8 mph93%29.86 "Hg6 mi
8:30 AM41 °FClear.8 mph100%29.86 "Hg6 mi
8:00 AM41 °FPassing clouds.8 mph93%29.86 "Hg5 mi
7:30 AM41 °FScattered clouds.9 mph93%29.86 "Hg4 mi
7:00 AM41 °FScattered clouds.8 mph93%29.86 "Hg5 mi
6:30 AM41 °FPassing clouds.7 mph100%29.86 "Hg4 mi
6:00 AM41 °FPassing clouds.6 mph93%29.89 "Hg4 mi
5:30 AM41 °FPassing clouds.7 mph100%29.89 "Hg4 mi
5:00 AM41 °FPassing clouds.7 mph100%29.89 "Hg4 mi
4:00 AM43 °FPassing clouds.6 mph93%29.89 "Hg4 mi
3:00 AM43 °FClear.7 mph93%29.89 "Hg4 mi
2:00 AM41 °FFog.9 mph100%29.89 "Hg3 mi
1:00 AM41 °FLight rain. Overcast.7 mph100%29.92 "Hg4 mi
12:00 AM43 °FLight rain. Overcast.5 mph93%29.95 "Hg4 mi
11:00 PM
Sun, Mar 1
41 °FOvercast.9 mph100%29.95 "Hg4 mi
10:00 PM41 °FMostly cloudy.10 mph93%29.98 "Hg4 mi
9:00 PM39 °FMostly cloudy.13 mph100%29.98 "Hg4 mi
8:30 PM39 °FOvercast.12 mph100%29.98 "Hg4 mi
8:00 PM39 °FLow clouds.10 mph100%30.01 "Hg5 mi
7:30 PM39 °FPassing clouds.12 mph100%30.01 "Hg6 mi
7:00 PM39 °FPassing clouds.13 mph100%30.01 "HgN/A
6:30 PM39 °FOvercast.15 mph93%30.01 "HgN/A
6:00 PM41 °FOvercast.13 mph87%30.01 "HgN/A
5:30 PM41 °FOvercast.14 mph87%30.01 "HgN/A
5:00 PM41 °FOvercast.14 mph87%30.01 "HgN/A
4:30 PM41 °FPartly sunny.13 mph87%30.01 "HgN/A
4:00 PM41 °FPartly sunny.12 mph87%30.04 "HgN/A
3:30 PM39 °FPartly sunny.14 mph93%30.04 "HgN/A
3:00 PM39 °FPartly sunny.14 mph93%30.04 "HgN/A
2:30 PM39 °FPartly sunny.14 mph93%30.07 "HgN/A
2:00 PM39 °FPartly sunny.13 mph93%30.07 "HgN/A
1:30 PM39 °FPartly sunny.13 mph93%30.07 "HgN/A
1:00 PM39 °FPartly sunny.12 mph93%30.09 "HgN/A
12:30 PM37 °FPartly sunny.12 mph93%30.09 "HgN/A
12:00 PM37 °FPartly sunny.12 mph93%30.09 "HgN/A
11:30 AM37 °FPartly sunny.12 mph93%30.09 "Hg6 mi
11:00 AM37 °FPartly sunny.12 mph100%30.09 "Hg4 mi
10:30 AM37 °FPartly sunny.10 mph93%30.12 "Hg4 mi
10:00 AM37 °FPartly sunny.9 mph93%30.12 "Hg4 mi
Weather by CustomWeather, © 2015

See weather overviewHow to use our weather pages